[TLELIST] Archives

 

[list_settings.list_name] Current TLEs

January 26th 2010 PDT

HST 1 20580U 90037B 10023.62220529 .00000424 00000-0 19702-4 0 5087 2 20580 028.4698 103.5431 0003519 107.4246 252.6780 15.00882601883003 ISS (ZARYA) 1 25544U 98067A 10025.34586806 .00034917 00000-0 22847-3 0 4443 2 25544 051.6427 244.2440 0010894 239.4577 111.1966 15.75381185640960 CXO 1 25867U 99040B 10026.25000000 -.00000278 00000-0 10000-3 0 4207 2 25867 066.4478 060.2760 7928411 275.2581 356.4306 00.37796094 5858 ____________________________________________________________________ These 2-Line ...Continue Reading

[list_settings.list_name] Current TLEs

January 25th 2010 PDT

HST 1 20580U 90037B 10023.62220529 .00000424 00000-0 19702-4 0 5087 2 20580 028.4698 103.5431 0003519 107.4246 252.6780 15.00882601883003 ISS (ZARYA) 1 25544U 98067A 10024.53773799 .00592068 00000-0 35663-2 0 4368 2 25544 051.6436 248.4085 0011118 248.4193 195.9966 15.75388454640848 CXO 1 25867U 99040B 10023.62500000 -.00000181 00000-0 10000-3 0 4191 2 25867 066.4329 060.4080 7927775 275.2758 359.0089 00.37805146 5843 ____________________________________________________________________ These 2-Line ...Continue Reading

[list_settings.list_name] Current TLEs

January 24th 2010 PDT

HST 1 20580U 90037B 10020.69635005 .00000378 00000-0 16145-4 0 5075 2 20580 028.4693 122.6396 0003374 077.4179 282.6819 15.00880828882565 ISS (ZARYA) 1 25544U 98067A 10023.38114583 .00044984 00000-0 27218-3 0 4288 2 25544 051.6425 254.3687 0004355 197.8584 156.5202 15.77110456640658 CXO 1 25867U 99040B 10023.62500000 -.00000181 00000-0 10000-3 0 4191 2 25867 066.4329 060.4080 7927775 275.2758 359.0089 00.37805146 5843 ____________________________________________________________________ These 2-Line ...Continue Reading

[list_settings.list_name] Current TLEs

January 23rd 2010 PDT

HST 1 20580U 90037B 10020.69635005 .00000378 00000-0 16145-4 0 5075 2 20580 028.4693 122.6396 0003374 077.4179 282.6819 15.00880828882565 ISS (ZARYA) 1 25544U 98067A 10022.19437620 .00014443 00000-0 88205-4 0 4209 2 25544 051.6443 260.4856 0006862 213.4959 238.0746 15.77658779640474 CXO 1 25867U 99040B 10020.95833333 -.00000135 00000-0 10000-3 0 4180 2 25867 066.4162 060.5648 7926075 275.2512 356.0076 00.37808043 5830 ____________________________________________________________________ These 2-Line ...Continue Reading

[list_settings.list_name] Current TLEs

January 22nd 2010 PDT

HST 1 20580U 90037B 10020.69635005 .00000378 00000-0 16145-4 0 5075 2 20580 028.4693 122.6396 0003374 077.4179 282.6819 15.00880828882565 ISS (ZARYA) 1 25544U 98067A 10021.18990116 .00012826 00000-0 78912-4 0 4130 2 25544 051.6455 265.6705 0006924 208.3400 294.4268 15.77622597640317 CXO 1 25867U 99040B 10020.95833333 -.00000135 00000-0 10000-3 0 4180 2 25867 066.4162 060.5648 7926075 275.2512 356.0076 00.37808043 5830 ____________________________________________________________________ These 2-Line ...Continue Reading

[list_settings.list_name] Current TLEs

January 21st 2010 PDT

HST 1 20580U 90037B 10019.69889916 .00000396 00000-0 17520-4 0 5062 2 20580 028.4689 129.1520 0003437 065.5079 294.5917 15.00880532882415 ISS (ZARYA) 1 25544U 98067A 10020.40159722 .00012129 00000-0 74924-4 0 4083 2 25544 051.6453 269.7402 0006891 205.2482 137.3860 15.77598320640187 CXO 1 25867U 99040B 10020.95833333 -.00000135 00000-0 10000-3 0 4180 2 25867 066.4162 060.5648 7926075 275.2512 356.0076 00.37808043 5830 ____________________________________________________________________ These 2-Line ...Continue Reading

[list_settings.list_name] Current TLEs

January 20th 2010 PDT

HST 1 20580U 90037B 10017.70399498 .00000382 00000-0 16507-4 0 5051 2 20580 028.4684 142.1741 0003416 042.9638 317.1280 15.00879493882113 ISS (ZARYA) 1 25544U 98067A 10019.28160499 .00012305 00000-0 76040-4 0 4021 2 25544 051.6459 275.5216 0006989 201.3630 256.1963 15.77570189640010 CXO 1 25867U 99040B 10018.33333333 -.00000195 00000-0 10000-3 0 4179 2 25867 066.4028 060.6809 7922549 275.2330 358.7121 00.37805905 5824 ____________________________________________________________________ These 2-Line ...Continue Reading

[list_settings.list_name] Current TLEs

January 19th 2010 PDT

HST 1 20580U 90037B 10017.70399498 .00000382 00000-0 16507-4 0 5051 2 20580 028.4684 142.1741 0003416 042.9638 317.1280 15.00879493882113 ISS (ZARYA) 1 25544U 98067A 10018.33243215 .00012461 00000-0 77029-4 0 3956 2 25544 051.6463 280.4212 0007122 197.1701 266.2001 15.77546832639861 CXO 1 25867U 99040B 10018.33333333 -.00000195 00000-0 10000-3 0 4179 2 25867 066.4028 060.6809 7922549 275.2330 358.7121 00.37805905 5824 ____________________________________________________________________ These 2-Line ...Continue Reading

[list_settings.list_name] Current TLEs

January 18th 2010 PDT

HST 1 20580U 90037B 10015.77558629 .00000386 00000-0 16743-4 0 5044 2 20580 028.4687 154.7677 0003272 021.8341 338.2467 15.00878663881826 ISS (ZARYA) 1 25544U 98067A 10017.49046296 .00017011 00000-0 10369-3 0 3883 2 25544 051.6465 284.7652 0007084 193.6856 164.8256 15.77538515639726 CXO 1 25867U 99040B 10015.70833333 -.00000318 00000-0 10000-3 0 4168 2 25867 066.3899 060.7765 7918915 275.2218 001.3945 00.37804891 5815 ____________________________________________________________________ These 2-Line ...Continue Reading

[list_settings.list_name] Current TLEs

January 17th 2010 PDT

HST 1 20580U 90037B 10015.77558629 .00000386 00000-0 16743-4 0 5044 2 20580 028.4687 154.7677 0003272 021.8341 338.2467 15.00878663881826 ISS (ZARYA) 1 25544U 98067A 10016.36909998 .00018609 00000-0 11320-3 0 3810 2 25544 051.6465 290.5527 0007259 188.7908 277.1430 15.77505997639550 CXO 1 25867U 99040B 10015.70833333 -.00000318 00000-0 10000-3 0 4168 2 25867 066.3899 060.7765 7918915 275.2218 001.3945 00.37804891 5815 ____________________________________________________________________ These 2-Line ...Continue Reading
  • This mailing list is a public mailing list - anyone may join or leave, at any time.
  • This mailing list is announce-only.

International Space Station (ISS) / Hubble Space Telescope (HST) / Chandra X-Ray Observatory Orbital Data via EMAIL

Privacy Policy:

Private list